Location: Ç?ral? Körfezi
(36.3984°N, 30.4829°E)
Time: 09:13:54
(UTC+00:00)

ATLAS 2AS CENTAUR R/B - Pass Details

Date: 04 August 2024
Orbit: 1023 x 1188 km, 63.7° (Epoch: 14 September)

Event Time Altitude Azimuth Distance (km) Brightness Sun altitude
Exits shadow 22:57:22 51° 78° (ENE) 1,412 3.3 -35.2°
Drops below altitude 10° 23:03:05 10° 39° (NE) 3,006 5.7 -34.9°
Sets 23:05:46 0° 36° (NE) 3,944 6.6 -34.7°
